Regional Weather Roundup
Issued by NWS

Home | Current Version | Previous Version | Text Only | Print | Product List | Glossary On
Versions: 1 2 3 4 5 6 7 8 9 10 11 12 13 14 15 16 17 18 19 20 21 22 23 24 25 26 27 28 29 30 31 32 33 34 35 36 37 38 39 40 41 42 43 44 45 46 47 48 49 50
000
ASUS43 KFSD 260010
RWRSD

WEATHER ROUNDUP FOR SOUTH DAKOTA
NATIONAL WEATHER SERVICE SIOUX FALLS SD
700 PM CDT SAT MAR 25 2017

NOTE: "FAIR" INDICATES FEW OR NO CLOUDS BELOW 12,000 FEET WITH NO
SIGNIFICANT WEATHER AND/OR OBSTRUCTIONS TO VISIBILITY.


SDZ001>005-009-010-012>017-260100-
NORTHWEST AND NORTH CENTRAL SOUTH DAKOTA

CITY           SKY/WX    TMP DP  RH WIND       PRES   REMARKS
BUFFALO          N/A     59  33  37 NE15      29.79F
FAITH            N/A     56  27  32 MISG      29.83S
MOBRIDGE       CLOUDY    55  31  39 SE10      29.88S
$$

SDZ012>016-024>037-041>051-057-063-072>074-260100-
SOUTHWEST AND SOUTH CENTRAL SOUTH DAKOTA

CITY           SKY/WX    TMP DP  RH WIND       PRES   REMARKS
RAPID CTY ARPT CLOUDY    59  33  37 NW13      29.81S
PIERRE         MOCLDY    52  32  46 E16       29.89S
CUSTER         CLOUDY    51  28  41 NE6       29.86F
ELLSWORTH AFB  CLOUDY    59  35  40 NW14      29.81F
PHILIP         CLOUDY    63  18  17 E13       29.81S
PINE RIDGE     CLOUDY    66  34  30 S7        29.80S
SPEARFISH      FAIR      57  36  44 NE8       29.85S
WINNER         FAIR      54  37  52 SE20      29.90S
$$

SDZ004>011-016>023-039-040-260100-
NORTHEAST SOUTH DAKOTA

CITY           SKY/WX    TMP DP  RH WIND       PRES   REMARKS
ABERDEEN       CLOUDY    42  33  70 E12       29.98S
WATERTOWN      CLOUDY    36  34  92 E6        30.01R
BROOKINGS      CLOUDY    39  36  89 E10       29.99
SISSETON         N/A     38  34  85 SE12      30.03F
$$

SDZ017-020-022-023-036>040-048>070-260100-
SOUTHEAST SOUTH DAKOTA

CITY           SKY/WX    TMP DP  RH WIND       PRES   REMARKS
SIOUX FALLS    CLOUDY    41  38  89 E12       29.99F
HURON          CLEAR     43  36  76 E15       29.98S
CHAMBERLAIN    CLEAR     48  37  66 E13       29.93F
MITCHELL       CLOUDY    45  38  76 E9        29.98F
YANKTON        CLOUDY    41  37  87 NE10      29.97F
$$

ABBREVIATIONS USED IN REMARKS
   TC - TEMPERATURE IN CELSIUS
  WCI - WIND CHILL INDEX
   HX - HEAT INDEX
  VSB - VISIBILITY




USA.gov is the U.S. government's official web portal to all federal, state and local government web resources and services.